Location: Sommers-Bausch Observatory
(40.0037°N, 105.2635°W)
Time: 11:12:26
(UTC-06:00)

Amateur Radio Satellites - All Passes

Search period start: 26 July 2014 10:42
Search period end: 27 July 2014 10:42
Location: Sommers-Bausch Observatory, 40.0037°N, 105.2635°W

Satellite Date Start Highest point End Downlink Frequencies (MHz)
Time Altitude Azimuth
Sapphire 26 Jul 10:44:20 10:49:43 61° 59° (ENE) 10:55:04 437.095 MHz 1200 baud AX-25 AFSK
Oscar 11 26 Jul 10:44:44 10:49:04 71° 102° (ESE) 10:53:23 145.825 FM, Beacon 2401.500 USB
FUNcube-1 26 Jul 10:58:09 11:01:57 33° 97° (E) 11:05:46 145.950 - 145.970 MHz USB
PCSat 26 Jul 11:18:06 11:23:30 66° 245° (WSW) 11:28:51 145.825 MHz
UKube-1 26 Jul 11:33:26 11:36:29 19° 295° (WNW) 11:39:31 145.840 MHz, 145.915 MHz
HO-68 26 Jul 11:36:13 11:42:17 31° 298° (WNW) 11:48:20 435.675 MHz FM
Oscar 11 26 Jul 12:23:33 12:24:39 11° 298° (WNW) 12:25:46 145.825 FM, Beacon 2401.500 USB
Sapphire 26 Jul 12:29:04 12:32:36 18° 255° (WSW) 12:36:07 437.095 MHz 1200 baud AX-25 AFSK
Oscar 16 26 Jul 12:33:23 12:36:50 19° 63° (ENE) 12:40:18 437.025 USB, Beacon 2401.1428
FUNcube-1 26 Jul 12:35:10 12:38:08 19° 293° (WNW) 12:41:06 145.950 - 145.970 MHz USB
RS-15 26 Jul 12:45:45 12:54:31 28° 103° (ESE) 13:03:04 29.354 - 29.394 USB, Beacon 29.352 USB
AO-Echo 26 Jul 12:46:28 12:48:08 12° 59° (ENE) 12:49:49 ?
ITAMSAT 1 26 Jul 12:50:05 12:52:00 12° 59° (ENE) 12:53:56 435.822 SSB
SO-50 26 Jul 12:50:21 12:54:12 29° 113° (ESE) 12:58:06 436.795 FM
JAS-1B 26 Jul 13:06:09 13:12:39 23° 53° (NE) 13:19:32 435.800 - 435.900 CW/SSB
AO-27 26 Jul 13:06:47 13:10:13 18° 62° (ENE) 13:13:39 436.795 MHz FM
Uribyol 2 26 Jul 13:08:21 13:11:56 19° 63° (ENE) 13:15:31 436.500 FM
Oscar 19 26 Jul 13:42:42 13:47:48 78° 75° (ENE) 13:52:56 437.125 CW, 437.150 USB
Oscar 16 26 Jul 14:10:46 14:15:45 54° 260° (W) 14:20:47 437.025 USB, Beacon 2401.1428
KITSAT 1 26 Jul 14:19:01 14:25:02 22° 37° (NE) 14:31:01 435.175 FM
AO-Echo 26 Jul 14:20:46 14:26:03 85° 76° (ENE) 14:31:24 ?
ITAMSAT 1 26 Jul 14:25:30 14:30:43 88° 256° (WSW) 14:35:58 435.822 SSB
TMSAT-1 26 Jul 14:29:03 14:33:35 30° 67° (ENE) 14:38:08 436.925 FM
SO-50 26 Jul 14:30:42 14:34:41 31° 311° (NW) 14:38:44 436.795 FM
AO-27 26 Jul 14:44:06 14:49:14 59° 259° (W) 14:54:25 436.795 MHz FM
Uribyol 2 26 Jul 14:45:54 14:50:59 54° 260° (W) 14:56:05 436.500 FM
Gurwin Techsat 1B 26 Jul 14:50:46 14:56:00 65° 73° (ENE) 15:01:17 435.225 FM
JAS-1B 26 Jul 14:52:58 15:01:36 85° 74° (ENE) 15:11:27 435.800 - 435.900 CW/SSB
AO-7 26 Jul 14:54:04 15:00:32 26° 55° (NE) 15:06:59 29.400 - 29.500 MHz
RS-15 26 Jul 14:54:34 15:05:44 77° 304° (WNW) 15:16:43 29.354 - 29.394 USB, Beacon 29.352 USB
UOSAT-12 26 Jul 15:06:03 15:10:28 50° 117° (ESE) 15:15:00 437.025 FM, 437.400 FM
Oscar 19 26 Jul 15:26:10 15:27:43 11° 271° (W) 15:29:16 437.125 CW, 437.150 USB
AO-Echo 26 Jul 16:03:55 16:05:26 11° 272° (W) 16:06:57 ?
TMSAT-1 26 Jul 16:08:38 16:13:23 34° 263° (W) 16:18:11 436.925 FM
KITSAT 1 26 Jul 16:13:38 16:21:46 80° 59° (ENE) 16:29:49 435.175 FM
Uosat F 26 Jul 16:15:42 16:20:43 70° 74° (ENE) 16:25:45 435.120 FM
JAS-2 26 Jul 16:19:14 16:20:46 11° 53° (NE) 16:22:18 435.800 - 435.900 CW/SSB, 435.910 FM
Gurwin Techsat 1B 26 Jul 16:33:26 16:36:25 15° 269° (W) 16:39:24 435.225 FM
AO-7 26 Jul 16:44:09 16:52:30 75° 254° (WSW) 17:00:55 29.400 - 29.500 MHz
JAS-1B 26 Jul 16:46:54 16:53:15 22° 274° (W) 17:00:11 435.800 - 435.900 CW/SSB
UOSAT-12 26 Jul 16:47:20 16:50:54 22° 315° (NW) 16:54:32 437.025 FM, 437.400 FM
OPAL 26 Jul 16:58:25 17:03:25 59° 103° (ESE) 17:08:28 ?
RS-15 26 Jul 17:11:23 17:20:12 27° 331° (NNW) 17:29:03 29.354 - 29.394 USB, Beacon 29.352 USB
Saudisat 1A 26 Jul 17:11:57 17:16:19 56° 55° (NE) 17:20:37 436.775 MHz
Hamsat 26 Jul 17:13:38 17:16:21 17° 66° (ENE) 17:19:06 145.90 MHz
JAS-2 26 Jul 17:56:47 18:04:21 55° 70° (ENE) 18:11:33 435.800 - 435.900 CW/SSB, 435.910 FM
Uosat F 26 Jul 17:57:44 17:59:58 13° 270° (W) 18:02:13 435.120 FM
KITSAT 1 26 Jul 18:10:39 18:16:13 21° 258° (WSW) 18:21:45 435.175 FM
OPAL 26 Jul 18:38:34 18:41:50 18° 299° (WNW) 18:45:07 ?
AO-7 26 Jul 18:43:01 18:46:32 13° 272° (W) 18:50:05 29.400 - 29.500 MHz
Hamsat 26 Jul 18:48:07 18:52:01 38° 262° (W) 18:55:57 145.90 MHz
Saudisat 1A 26 Jul 18:53:01 18:55:25 15° 251° (WSW) 18:57:48 436.775 MHz
STRAND 1 26 Jul 19:17:30 19:22:13 37° 98° (E) 19:26:54 ?
SO-67 26 Jul 19:25:38 19:29:06 86° 78° (ENE) 19:32:35 435.3500 MHz FM
RS-15 26 Jul 19:30:53 19:37:59 19° 8° (N) 19:45:09 29.354 - 29.394 USB, Beacon 29.352 USB
JAS-2 26 Jul 19:42:45 19:49:30 32° 266° (W) 19:56:04 435.800 - 435.900 CW/SSB, 435.910 FM
HO-68 26 Jul 20:16:02 20:22:26 37° 63° (ENE) 20:28:49 435.675 MHz FM
UKube-1 26 Jul 20:51:30 20:55:23 32° 69° (ENE) 20:59:16 145.840 MHz, 145.915 MHz
STRAND 1 26 Jul 20:57:03 21:01:13 26° 294° (WNW) 21:05:22 ?
MaSat-1 26 Jul 21:08:02 21:10:39 17° 100° (E) 21:13:32 437.345 MHz
SO-50 26 Jul 21:22:09 21:26:09 26° 47° (NE) 21:30:12 436.795 FM
Oscar 11 26 Jul 21:39:05 21:43:14 50° 73° (ENE) 21:47:24 145.825 FM, Beacon 2401.500 USB
RS-15 26 Jul 21:44:40 21:54:46 39° 41° (NE) 22:05:05 29.354 - 29.394 USB, Beacon 29.352 USB
FUNcube-1 26 Jul 21:54:18 21:57:56 27° 70° (ENE) 22:01:31 145.950 - 145.970 MHz USB
HO-68 26 Jul 22:03:14 22:09:58 43° 261° (W) 22:16:45 435.675 MHz FM
Lituanica SAT-1 26 Jul 22:23:55 22:25:08 15° 135° (SE) 22:26:21 437.275 MHz beacon
UKube-1 26 Jul 22:28:13 22:31:37 22° 265° (W) 22:35:02 145.840 MHz, 145.915 MHz
MaSat-1 26 Jul 22:43:41 22:47:30 40° 302° (WNW) 22:51:55 437.345 MHz
AO-40 26 Jul 22:44:41 04:27:21 40° 182° (S) 10:16:14 Beacon 2401.320
SO-50 26 Jul 23:02:23 23:06:50 40° 244° (WSW) 23:11:20 436.795 FM
Oscar 11 26 Jul 23:17:34 23:19:42 13° 269° (W) 23:21:50 145.825 FM, Beacon 2401.500 USB
FUNcube-1 26 Jul 23:30:39 23:34:17 25° 264° (W) 23:37:51 145.950 - 145.970 MHz USB
UOSAT-12 26 Jul 23:36:19 23:40:44 38° 51° (NE) 23:45:05 437.025 FM, 437.400 FM
Lituanica SAT-1 26 Jul 23:55:41 23:57:11 19° 330° (NNW) 23:58:42 437.275 MHz beacon
RS-15 26 Jul 23:56:57 00:07:53 69° 244° (WSW) 00:19:15 29.354 - 29.394 USB, Beacon 29.352 USB
ISS 27 Jul 00:03:29 00:06:28 31° 135° (SE) 00:09:29 145.800 FM
PCSat 27 Jul 00:18:01 00:21:28 17° 105° (ESE) 00:24:55 145.825 MHz
UOSAT-12 27 Jul 01:16:50 01:20:42 25° 248° (WSW) 01:24:30 437.025 FM, 437.400 FM
Sapphire 27 Jul 01:25:18 01:30:38 65° 115° (ESE) 01:36:00 437.095 MHz 1200 baud AX-25 AFSK
ISS 27 Jul 01:40:08 01:43:10 31° 332° (NNW) 01:46:14 145.800 FM
Oscar 19 27 Jul 01:55:24 01:59:53 29° 96° (E) 02:04:20 437.125 CW, 437.150 USB
PCSat 27 Jul 01:58:58 02:04:19 62° 301° (WNW) 02:09:43 145.825 MHz
RS-15 27 Jul 02:13:37 02:18:08 13° 264° (W) 02:22:43 29.354 - 29.394 USB, Beacon 29.352 USB
Oscar 16 27 Jul 02:22:58 02:28:03 56° 101° (E) 02:33:07 437.025 USB, Beacon 2401.1428
AO-Echo 27 Jul 02:29:37 02:34:00 29° 95° (E) 02:38:15 ?
OPAL 27 Jul 02:37:47 02:39:42 12° 58° (ENE) 02:41:38 ?
ITAMSAT 1 27 Jul 02:39:27 02:44:10 34° 97° (E) 02:48:50 435.822 SSB
JAS-1B 27 Jul 02:41:24 02:49:29 32° 90° (E) 02:56:35 435.800 - 435.900 CW/SSB
TMSAT-1 27 Jul 02:47:30 02:49:16 12° 89° (E) 02:51:01 436.925 FM
AO-27 27 Jul 02:57:50 03:02:55 53° 100° (E) 03:07:57 436.795 MHz FM
Uribyol 2 27 Jul 02:59:13 03:04:19 57° 101° (E) 03:09:22 436.500 FM
Gurwin Techsat 1B 27 Jul 03:08:12 03:12:41 27° 95° (E) 03:17:08 435.225 FM
Sapphire 27 Jul 03:10:33 03:14:31 20° 314° (NW) 03:18:31 437.095 MHz 1200 baud AX-25 AFSK
ISS 27 Jul 03:19:09 03:20:42 13° 351° (N) 03:22:16 145.800 FM
Oscar 19 27 Jul 03:34:37 03:39:11 33° 292° (WNW) 03:43:46 437.125 CW, 437.150 USB
PCSat 27 Jul 03:47:05 03:48:52 12° 322° (NW) 03:50:40 145.825 MHz
Oscar 16 27 Jul 04:03:31 04:06:56 18° 297° (WNW) 04:10:21 437.025 USB, Beacon 2401.1428
AO-Echo 27 Jul 04:08:16 04:12:44 31° 292° (WNW) 04:17:04 ?
OPAL 27 Jul 04:12:57 04:17:54 83° 254° (WSW) 04:22:52 ?
ITAMSAT 1 27 Jul 04:19:10 04:23:31 28° 293° (WNW) 04:27:51 435.822 SSB
TMSAT-1 27 Jul 04:24:28 04:29:47 81° 285° (WNW) 04:35:04 436.925 FM
Uosat F 27 Jul 04:24:56 04:28:49 22° 94° (E) 04:32:40 435.120 FM
JAS-1B 27 Jul 04:31:10 04:40:29 61° 292° (WNW) 04:48:32 435.800 - 435.900 CW/SSB
Lituanica SAT-1 27 Jul 04:34:40 04:35:52 15° 27° (NNE) 04:37:04 437.275 MHz beacon
AO-27 27 Jul 04:38:24 04:42:00 19° 297° (WNW) 04:45:34 436.795 MHz FM
Uribyol 2 27 Jul 04:39:56 04:43:19 18° 297° (WNW) 04:46:41 436.500 FM
AO-7 27 Jul 04:46:51 04:54:33 39° 99° (E) 05:02:08 29.400 - 29.500 MHz
Gurwin Techsat 1B 27 Jul 04:47:51 04:52:41 37° 291° (WNW) 04:57:29 435.225 FM
ISS 27 Jul 04:56:45 04:58:34 14° 12° (NNE) 05:00:23 145.800 FM
Uosat F 27 Jul 06:03:03 06:07:44 40° 290° (WNW) 06:12:23 435.120 FM
Lituanica SAT-1 27 Jul 06:06:23 06:07:57 21° 224° (SW) 06:09:30 437.275 MHz beacon
TMSAT-1 27 Jul 06:07:52 06:08:49 11° 302° (WNW) 06:09:46 436.925 FM
PANSAT 27 Jul 06:15:39 06:17:00 12° 169° (SSE) 06:18:20 not established
JAS-1B 27 Jul 06:24:09 06:28:49 15° 313° (NW) 06:33:16 435.800 - 435.900 CW/SSB
STRAND 1 27 Jul 06:32:40 06:37:38 51° 71° (ENE) 06:42:36 ?
ISS 27 Jul 06:32:46 06:35:59 41° 31° (NNE) 06:39:12 145.800 FM
Hamsat 27 Jul 06:34:15 06:38:14 37° 97° (E) 06:42:14 145.90 MHz
AO-7 27 Jul 06:39:33 06:47:22 47° 297° (WNW) 06:55:08 29.400 - 29.500 MHz
KITSAT 1 27 Jul 06:40:37 06:48:33 63° 114° (ESE) 06:56:31 435.175 FM
JAS-2 27 Jul 06:53:29 06:59:11 43° 97° (E) 07:04:19 435.800 - 435.900 CW/SSB, 435.910 FM
MaSat-1 27 Jul 07:02:14 07:07:20 44° 59° (ENE) 07:12:12 437.345 MHz
Saudisat 1A 27 Jul 07:19:22 07:22:11 17° 110° (ESE) 07:25:02 436.775 MHz
PANSAT 27 Jul 07:54:15 07:56:28 15° 181° (S) 07:58:40 not established
ISS 27 Jul 08:09:51 08:12:32 22° 227° (SW) 08:15:12 145.800 FM
Hamsat 27 Jul 08:10:55 08:13:57 19° 293° (WNW) 08:16:59 145.90 MHz
STRAND 1 27 Jul 08:13:33 08:17:05 19° 267° (W) 08:20:38 ?
SO-67 27 Jul 08:23:11 08:26:39 69° 283° (WNW) 08:30:05 435.3500 MHz FM
KITSAT 1 27 Jul 08:37:16 08:44:25 33° 315° (NW) 08:51:37 435.175 FM
JAS-2 27 Jul 08:39:06 08:43:57 26° 298° (WNW) 08:48:24 435.800 - 435.900 CW/SSB, 435.910 FM
MaSat-1 27 Jul 08:40:12 08:44:24 24° 257° (WSW) 08:48:24 437.345 MHz
Saudisat 1A 27 Jul 08:57:06 09:01:23 49° 306° (NW) 09:05:42 436.775 MHz
PCSat 27 Jul 09:05:33 09:08:48 16° 43° (NE) 09:12:01 145.825 MHz
HO-68 27 Jul 09:31:19 09:37:54 39° 98° (E) 09:44:27 435.675 MHz FM
Sapphire 27 Jul 10:14:01 10:19:13 45° 56° (NE) 10:24:24 437.095 MHz 1200 baud AX-25 AFSK
UKube-1 27 Jul 10:16:00 10:20:21 65° 102° (ESE) 10:24:39 145.840 MHz, 145.915 MHz
